This is the latest recevied weather packets stored in our database for station/object LZ0VRC-10. If no packets are shown the sender has not sent any weather packets the latest 10 day(s).
| Time | Temp. | Humidity | Pressure | Rain* | Wind** | Luminosity | Snow |
|---|---|---|---|---|---|---|---|
| 1777471113 | 16.67° C | 48% | 1018.9 hPa | - | - | - | - |
| 1777470218 | 16.67° C | 48% | 1018.9 hPa | - | - | - | - |
| 1777470213 | 16.67° C | 48% | 1018.9 hPa | - | - | - | - |
| 1777469318 | 16.67° C | 47% | 1018.9 hPa | - | - | - | - |
| 1777469313 | 16.67° C | 47% | 1018.9 hPa | - | - | - | - |
| 1777468418 | 17.78° C | 44% | 1018.8 hPa | - | - | - | - |
| 1777468413 | 17.78° C | 44% | 1018.8 hPa | - | - | - | - |
| 1777467518 | 17.78° C | 43% | 1018.8 hPa | - | - | - | - |
| 1777467513 | 17.78° C | 43% | 1018.8 hPa | - | - | - | - |
| 1777466618 | 18.89° C | 39% | 1018.6 hPa | - | - | - | - |
| 1777466613 | 18.89° C | 39% | 1018.6 hPa | - | - | - | - |
| 1777465718 | 19.44° C | 36% | 1018.5 hPa | - | - | - | - |
| 1777465713 | 19.44° C | 36% | 1018.5 hPa | - | - | - | - |
| 1777464818 | 19.44° C | 31% | 1018.6 hPa | - | - | - | - |
| 1777464813 | 19.44° C | 31% | 1018.6 hPa | - | - | - | - |
| 1777463913 | 19.44° C | 33% | 1018.6 hPa | - | - | - | - |
| 1777463018 | 20° C | 36% | 1018.5 hPa | - | - | - | - |
| 1777463013 | 20° C | 36% | 1018.5 hPa | - | - | - | - |
| 1777462118 | 20.56° C | 36% | 1018.4 hPa | - | - | - | - |
| 1777462113 | 20.56° C | 36% | 1018.4 hPa | - | - | - | - |
| 1777461218 | 20° C | 36% | 1018.5 hPa | - | - | - | - |
| 1777461213 | 20° C | 36% | 1018.5 hPa | - | - | - | - |
| 1777460318 | 21.11° C | 37% | 1018.6 hPa | - | - | - | - |
| 1777460313 | 21.11° C | 37% | 1018.6 hPa | - | - | - | - |
| 1777459418 | 19.44° C | 45% | 1018.7 hPa | - | - | - | - |
* Rain since midnight (hover to see other rain measurements)
** Current wind speed in m/s (hover to see current wind gust speed)